Wind_Speed
8 8 8 8 8 8 8 8 9 9 9 9 9 8 7 7 6 6 6 4 3 2 2 1 1 1 2 3 4 4 5 5 6 6 6 6 6 6 7 6 7 8 8
7 7 6 6 6 6 6 6 7 8 8 8 8 8 7 6 5 5 4 4 3 3 2 2 2 2 2 2 3 4 4 5 6 6 7 7 7 8 8 8 8 8 9
7 7 6 5 5 4 4 4 5 6 6 6 6 6 6 5 5 5 4 3 2 2 2 2 2 3 3 3 3 3 4 6 6 7 8 8 9 8 9 9 9 9 9
8 8 7 6 5 4 4 3 4 5 5 5 5 5 5 5 4 4 4 4 3 2 2 3 3 4 4 5 5 5 5 6 7 8 9 9 9 9 9 9 9 9 10
9 9 8 8 7 6 6 5 5 5 5 5 4 4 5 5 5 5 5 4 4 4 4 5 5 5 6 6 7 7 7 7 8 8 8 9 9 9 9 9 9 9 10
9 9 9 9 8 8 8 8 7 7 7 6 6 5 5 5 5 5 6 6 6 6 6 6 6 6 7 7 8 8 8 9 9 9 10 10 10 9 9 9 9 9 9
12 11 10 9 10 10 10 11 11 10 10 9 9 9 8 7 7 7 7 7 7 7 7 8 8 8 8 9 9 10 10 10 11 12 12 11 11 10 10 10 9 10 10
14 13 12 11 12 12 13 14 14 13 12 12 12 12 12 11 10 10 10 10 10 10 9 9 9 9 9 10 10 11 11 12 13 13 13 13 12 11 12 12 11 11 12
17 16 16 15 15 15 15 16 16 15 14 14 14 15 15 15 14 13 13 13 12 11 11 11 11 10 11 11 11 11 11 12 13 13 14 15 14 14 13 13 13 13 13
20 20 20 19 18 18 18 18 17 17 17 16 17 17 17 17 17 16 16 16 15 14 13 13 13 13 14 14 13 13 13 13 14 14 15 15 15 15 14 14 14 14 14
23 23 23 22 21 21 21 21 20 19 18 18 18 18 18 19 19 19 19 19 18 17 17 17 17 16 16 15 15 15 16 16 16 16 16 16 17 16 15 15 15 15 16
24 23 24 25 24 23 23 23 22 21 20 19 19 19 20 21 21 21 21 21 21 21 20 20 19 19 18 17 17 18 18 18 17 17 17 17 18 18 17 17 17 18 18
25 25 25 25 25 25 25 25 24 23 23 22 21 22 22 22 22 23 23 22 22 22 21 21 21 21 21 20 20 20 20 19 19 19 18 18 18 18 18 18 19 19 19
25 26 26 26 27 26 26 26 25 25 24 24 24 24 24 24 25 24 24 24 23 23 22 23 23 23 23 23 23 22 21 21 20 20 20 19 19 20 20 19 20 20 21
26 27 29 30 30 29 28 28 27 27 27 28 28 27 27 26 27 27 27 27 26 26 26 26 25 25 25 24 24 24 23 22 22 21 21 21 21 21 21 21 21 22 22
30 31 32 32 31 31 30 29 29 29 30 30 31 31 31 29 28 28 28 28 28 28 28 28 28 28 28 26 25 25 25 25 23 23 23 23 22 22 22 22 23 23 23
33 34 34 31 31 30 31 31 30 30 30 32 33 33 32 31 30 30 30 29 30 30 30 30 29 29 28 28 28 27 27 27 26 26 25 25 24 25 24 24 24 24 25
34 34 34 33 32 32 31 31 31 31 31 32 32 32 33 33 32 32 32 31 31 31 31 31 31 33 33 31 30 29 29 29 28 28 28 27 27 27 27 26 26 26 27
34 34 32 31 32 32 32 31 32 32 32 33 33 34 34 34 35 34 33 33 33 33 33 33 34 35 34 33 32 31 30 31 31 30 30 29 29 29 29 29 29 28 28
35 34 34 34 34 33 32 32 32 32 33 33 34 35 36 37 37 37 36 35 35 36 36 35 35 35 35 34 34 32 31 31 31 32 32 32 32 31 31 31 30 30 30
36 35 35 35 34 33 32 32 33 34 35 35 36 37 38 39 39 38 38 38 38 37 37 36 37 36 35 34 34 34 33 32 32 33 33 34 33 33 33 33 32 32 32
36 36 35 34 34 34 33 33 34 35 36 36 36 37 37 38 39 39 39 39 39 38 38 38 37 37 36 35 34 35 34 33 33 33 33 34 34 34 35 35 34 33 33
35 35 35 35 35 35 35 34 34 35 36 35 35 36 36 37 38 39 39 39 38 38 38 38 37 36 36 35 35 35 34 34 34 34 33 33 34 35 36 36 36 35 35
37 35 35 35 36 36 36 36 35 35 35 34 34 35 35 36 37 37 37 37 37 36 36 36 36 35 34 35 34 34 35 35 35 34 34 34 35 35 35 37 38 37 36
35 36 36 36 37 37 37 36 36 36 35 34 34 34 35 35 35 36 36 36 35 36 35 35 35 34 34 33 33 33 34 34 34 35 36 36 36 36 37 37 38 37 37
34 34 34 35 36 35 35 36 35 35 34 34 34 34 34 34 34 35 35 35 33 33 33 34 34 34 34 34 34 34 34 35 35 36 37 37 37 37 37 38 38 39 39
Wind_Direction
11 16 17 20 27 34 41 44 48 50 52 53 55 55 57 55 57 63 67 69 71 61 57 34 9 331 299 260 254 255 252 252 250 255 259 270 274 267 268 272 271 266 264
355 360 359 0 7 16 30 35 40 40 40 44 46 47 47 46 50 51 45 50 51 45 40 32 19 1 347 319 283 274 267 264 261 260 266 274 277 271 269 272 270 267 266
331 339 339 337 337 344 4 18 25 29 28 28 29 33 35 32 29 26 26 19 17 18 15 4 353 343 341 333 321 288 280 280 276 276 274 272 273 277 273 271 269 265 264
311 320 327 327 318 311 320 339 348 357 2 6 11 13 15 16 16 11 5 359 353 344 330 334 328 319 320 318 315 309 291 286 285 285 284 280 280 279 275 271 269 264 262
298 305 312 313 305 296 294 302 312 321 326 330 337 344 347 350 352 350 346 340 332 322 316 317 312 304 304 307 305 299 296 288 286 289 291 292 288 284 279 274 271 270 269
285 292 295 299 294 289 285 284 293 298 301 302 303 306 313 321 324 326 328 325 321 314 310 311 308 305 302 304 304 297 293 290 283 285 290 291 291 286 280 277 271 271 273
277 276 271 280 283 285 284 280 281 286 289 291 291 290 292 299 301 303 306 306 305 301 299 299 297 299 299 300 300 296 291 289 285 281 282 284 283 283 278 276 273 273 274
271 271 268 276 277 282 282 282 277 277 279 284 287 288 288 288 288 290 295 296 295 292 292 292 291 292 294 298 298 294 290 286 285 282 280 278 278 279 276 273 272 271 272
264 268 269 272 273 276 280 282 281 277 276 278 281 282 284 285 284 286 288 290 289 288 287 287 287 287 288 290 294 295 292 286 285 282 278 275 275 276 274 272 270 268 270
260 264 266 269 270 270 273 278 278 276 276 275 275 277 278 280 280 282 281 282 282 283 283 280 281 283 284 285 287 290 292 291 288 286 282 277 276 273 269 269 271 272 274
257 261 264 267 269 270 271 274 275 274 275 275 275 274 276 275 276 278 279 280 278 279 280 279 280 281 279 281 284 286 287 288 288 284 280 277 275 272 270 270 272 274 275
262 262 264 268 269 269 270 271 273 274 274 273 274 274 274 275 276 277 277 278 278 278 280 280 278 278 278 279 282 284 284 284 284 283 280 277 274 272 272 272 274 276 276
263 267 268 267 268 268 269 269 269 270 271 271 273 274 274 275 275 277 278 278 281 280 279 278 277 278 278 278 279 280 280 281 281 281 281 276 271 271 272 273 275 276 276
267 270 270 270 269 266 268 270 271 271 269 270 270 271 271 273 274 276 277 279 281 282 280 278 277 277 278 278 277 277 276 277 280 279 278 276 272 271 272 273 275 276 277
268 270 271 272 273 271 269 269 269 268 268 269 269 270 269 269 270 272 275 277 279 279 279 279 277 277 277 276 275 274 273 275 277 278 278 276 274 272 272 273 275 276 279
270 271 273 272 270 270 268 267 267 266 266 267 268 268 267 267 268 271 273 276 278 278 277 277 275 275 275 273 274 274 273 272 273 276 276 275 273 273 273 273 275 277 279
272 271 272 274 270 270 269 267 268 267 267 268 268 268 268 268 271 271 272 275 276 276 276 276 275 273 274 273 272 271 271 271 271 273 272 272 272 274 275 275 275 277 278
269 269 269 270 270 269 268 268 268 268 268 268 269 271 272 272 271 271 271 273 274 274 275 275 275 273 270 270 269 267 269 268 268 269 270 269 270 272 273 275 275 277 278
271 267 267 269 269 267 266 267 267 268 268 269 269 269 271 272 271 271 272 271 272 273 273 272 273 272 269 268 268 268 270 268 267 268 268 268 270 271 270 272 275 277 278
270 269 268 271 271 267 264 264 266 268 268 268 268 268 269 270 271 271 272 273 272 271 272 271 272 272 268 267 266 269 269 269 269 269 268 268 270 271 271 272 274 276 278
269 269 270 271 271 268 267 267 267 268 269 269 269 268 269 269 269 270 271 272 272 272 272 272 272 271 271 268 267 267 268 267 268 268 268 269 269 270 271 271 272 274 276
269 269 269 270 271 270 268 269 268 268 270 271 270 269 269 270 270 270 271 271 270 272 273 273 273 271 271 268 268 267 266 267 268 268 268 269 269 270 271 271 273 274 276
269 270 270 270 270 271 271 270 268 269 270 270 271 271 271 271 273 274 274 272 270 271 272 272 272 271 271 268 266 266 266 266 267 268 268 269 268 269 270 271 272 273 275
269 270 270 270 270 270 270 270 270 268 269 270 272 273 272 273 274 274 274 274 271 271 271 271 272 270 268 267 264 264 267 268 267 267 268 269 268 268 270 271 271 273 274
268 269 270 269 269 269 270 270 269 268 269 271 273 273 273 274 274 273 274 275 274 273 272 272 271 269 269 269 268 269 269 270 269 269 269 269 268 268 269 270 271 272 273
269 271 271 270 270 269 270 269 267 268 270 270 272 272 273 274 274 274 274 273 272 273 273 273 273 272 271 271 271 271 272 273 273 272 272 271 269 269 269 269 270 270 271
Height
5910 5909 5908 5907 5906 5905 5904 5904 5903 5902 5901 5901 5900 5899 5899 5898 5897 5897 5896 5895 5895 5895 5895 5894 5894 5893 5893 5892 5892 5892 5892 5892 5892 5892 5892 5892 5892 5892 5891 5890 5890 5889 5889
5909 5908 5908 5907 5906 5906 5905 5904 5903 5903 5902 5902 5901 5900 5899 5899 5898 5897 5897 5896 5895 5895 5894 5894 5893 5893 5892 5892 5891 5891 5891 5891 5890 5891 5891 5891 5891 5890 5889 5888 5888 5887 5886
5908 5907 5907 5906 5905 5905 5905 5904 5903 5903 5902 5902 5901 5900 5900 5899 5898 5897 5897 5896 5895 5894 5894 5893 5893 5892 5892 5891 5890 5890 5889 5889 5889 5889 5889 5888 5888 5888 5887 5886 5886 5885 5884
5906 5906 5905 5905 5904 5904 5903 5903 5903 5902 5902 5901 5901 5900 5899 5899 5898 5897 5896 5895 5894 5894 5893 5892 5892 5891 5890 5890 5889 5888 5888 5888 5887 5887 5886 5886 5885 5885 5885 5885 5884 5883 5882
5903 5903 5903 5903 5903 5903 5902 5902 5902 5901 5901 5900 5900 5899 5898 5898 5897 5896 5895 5894 5893 5892 5892 5891 5890 5889 5888 5888 5887 5887 5886 5886 5886 5885 5884 5883 5883 5882 5882 5882 5881 5881 5880
5900 5900 5900 5900 5901 5901 5900 5900 5900 5900 5899 5899 5898 5897 5896 5896 5895 5895 5894 5893 5892 5891 5890 5889 5888 5887 5886 5886 5885 5884 5884 5884 5883 5883 5882 5881 5880 5879 5879 5879 5878 5878 5877
5895 5896 5896 5897 5897 5897 5897 5897 5897 5897 5897 5896 5895 5895 5894 5893 5893 5892 5891 5891 5890 5888 5887 5886 5885 5885 5884 5883 5882 5882 5881 5880 5880 5880 5879 5878 5877 5876 5876 5875 5875 5874 5874
5891 5892 5892 5893 5894 5894 5894 5894 5894 5893 5893 5893 5892 5892 5891 5890 5889 5888 5888 5887 5887 5886 5884 5883 5882 5882 5881 5880 5879 5878 5878 5877 5876 5876 5875 5875 5874 5873 5872 5872 5872 5871 5871
5887 5888 5888 5889 5890 5890 5890 5890 5890 5889 5889 5889 5888 5888 5888 5887 5886 5885 5884 5883 5882 5882 5881 5880 5879 5878 5877 5877 5876 5875 5874 5873 5872 5871 5871 5871 5870 5869 5868 5868 5867 5867 5867
5881 5882 5884 5884 5884 5885 5885 5885 5885 5884 5884 5884 5883 5883 5883 5883 5882 5880 5880 5879 5878 5878 5877 5876 5875 5874 5874 5873 5872 5871 5870 5869 5868 5867 5867 5866 5865 5864 5864 5863 5863 5862 5862
5875 5876 5877 5878 5878 5879 5879 5879 5879 5878 5878 5878 5878 5878 5877 5877 5876 5876 5875 5874 5873 5873 5872 5871 5870 5870 5869 5868 5867 5866 5866 5865 5863 5862 5861 5861 5860 5859 5859 5858 5858 5857 5857
5867 5868 5869 5871 5871 5872 5873 5873 5873 5872 5872 5872 5872 5872 5872 5871 5871 5870 5869 5869 5868 5867 5866 5865 5865 5864 5863 5863 5862 5861 5861 5860 5858 5857 5856 5855 5855 5854 5854 5853 5852 5852 5851
5859 5860 5861 5862 5863 5864 5865 5866 5866 5866 5865 5865 5866 5866 5866 5865 5864 5864 5862 5861 5861 5861 5860 5859 5859 5858 5857 5857 5856 5855 5855 5854 5853 5852 5851 5850 5849 5848 5848 5848 5847 5846 5845
5852 5852 5853 5854 5855 5856 5857 5858 5859 5858 5858 5858 5858 5858 5859 5858 5857 5856 5856 5855 5855 5854 5853 5853 5852 5851 5850 5850 5849 5849 5848 5847 5847 5846 5845 5844 5843 5842 5842 5841 5841 5840 5839
5844 5845 5845 5846 5846 5847 5849 5850 5850 5851 5851 5851 5851 5850 5851 5850 5850 5849 5849 5848 5847 5847 5847 5846 5845 5844 5843 5842 5842 5841 5841 5840 5840 5839 5838 5837 5837 5836 5835 5835 5834 5833 5832
5837 5837 5837 5837 5837 5838 5839 5841 5841 5842 5843 5843 5842 5842 5841 5841 5841 5841 5841 5840 5839 5839 5839 5838 5837 5836 5835 5835 5834 5834 5834 5833 5832 5832 5831 5830 5829 5829 5828 5827 5827 5826 5825
5829 5829 5828 5827 5828 5828 5830 5831 5832 5833 5833 5833 5833 5832 5832 5832 5831 5831 5831 5831 5831 5830 5830 5829 5828 5827 5827 5826 5826 5826 5825 5825 5824 5824 5823 5823 5822 5821 5821 5820 5819 5819 5818
5820 5819 5819 5819 5819 5819 5820 5821 5822 5823 5823 5823 5822 5822 5822 5822 5821 5821 5822 5822 5821 5821 5820 5820 5819 5818 5818 5817 5816 5816 5816 5816 5815 5815 5815 5814 5814 5813 5813 5813 5812 5811 5810
5809 5810 5810 5810 5809 5810 5811 5812 5812 5812 5812 5813 5813 5813 5813 5813 5812 5812 5812 5812 5812 5811 5810 5809 5809 5808 5807 5807 5807 5806 5806 5806 5806 5806 5805 5805 5805 5804 5804 5804 5803 5803 5802
5799 5799 5800 5800 5800 5801 5801 5802 5802 5802 5802 5802 5803 5803 5803 5803 5803 5802 5802 5802 5802 5801 5800 5799 5799 5797 5796 5796 5796 5796 5796 5796 5796 5796 5796 5796 5795 5795 5794 5794 5794 5794 5793
5790 5790 5790 5790 5790 5790 5791 5791 5792 5792 5792 5792 5792 5792 5792 5792 5792 5791 5791 5790 5790 5790 5789 5789 5787 5786 5786 5785 5785 5786 5786 5786 5786 5786 5786 5785 5785 5785 5785 5784 5784 5784 5783
5780 5780 5780 5780 5780 5780 5781 5781 5781 5782 5781 5781 5781 5781 5781 5780 5780 5780 5779 5778 5778 5778 5778 5777 5776 5776 5775 5774 5774 5775 5775 5775 5775 5775 5775 5775 5774 5774 5774 5774 5774 5773 5772
5770 5770 5770 5770 5770 5770 5771 5771 5770 5770 5770 5769 5769 5769 5769 5769 5769 5769 5768 5767 5766 5766 5766 5767 5766 5765 5764 5763 5763 5763 5763 5764 5764 5764 5764 5764 5763 5763 5763 5763 5763 5762 5761
5761 5761 5760 5760 5760 5761 5760 5760 5760 5760 5759 5759 5758 5758 5758 5758 5758 5758 5758 5757 5756 5755 5755 5755 5754 5754 5753 5752 5752 5752 5752 5753 5753 5752 5752 5752 5752 5752 5752 5751 5751 5750 5750
5751 5750 5750 5750 5750 5750 5749 5749 5749 5748 5748 5748 5748 5748 5748 5748 5748 5748 5747 5746 5746 5745 5745 5745 5744 5743 5743 5743 5743 5742 5742 5742 5741 5741 5741 5740 5740 5740 5740 5740 5739 5739 5738
5740 5740 5740 5740 5740 5739 5739 5739 5738 5738 5737 5738 5738 5737 5737 5737 5737 5737 5737 5736 5736 5735 5735 5734 5733 5733 5733 5733 5732 5732 5732 5731 5730 5729 5729 5728 5728 5728 5727 5727 5727 5726 5726